SCP
1 1 2 2 2 2 2 1 1 1 1 1 1 1 1 1 1 1 1 1 1 0 0 0 0 0 0 0 1 1 1 1 1 1 1 1 1 0 0 0 0 0 0
1 1 2 2 2 2 2 1 1 1 1 1 1 1 1 1 1 1 1 1 1 1 0 0 0 0 0 0 1 1 1 1 1 0 0 0 1 0 0 0 0 0 0
1 1 2 2 2 2 2 2 1 1 1 1 1 1 1 1 1 1 1 1 1 1 1 1 1 1 0 1 1 1 1 1 0 0 0 0 0 1 1 1 0 0 0
1 1 2 2 2 2 2 2 1 1 1 1 1 1 1 1 1 1 1 1 1 1 1 1 1 1 1 1 1 1 1 1 0 0 0 0 0 0 1 1 0 0 0
1 1 2 2 3 2 2 2 1 1 1 1 1 1 1 1 1 1 1 1 1 1 1 1 1 1 1 1 1 1 1 1 0 0 0 0 0 0 1 1 1 0 0
1 1 2 3 3 3 2 2 2 1 1 1 1 1 1 1 1 1 1 1 1 1 1 1 1 1 1 1 1 1 1 1 0 0 0 0 0 0 1 1 1 1 0
1 1 2 3 3 3 2 2 2 1 1 1 1 1 1 1 1 1 1 1 1 1 1 1 1 1 1 1 1 1 1 0 0 0 0 0 0 0 1 1 1 1 1
1 2 2 3 3 2 2 2 2 1 1 1 1 1 1 1 1 1 1 1 1 1 1 1 1 1 1 1 1 1 1 0 0 0 0 0 0 0 1 1 1 1 1
2 2 2 2 2 2 2 1 1 1 1 1 1 1 1 1 1 1 1 1 1 1 1 1 1 1 1 1 1 1 1 0 0 0 0 0 0 0 1 1 1 1 1
2 3 2 2 1 1 1 1 1 1 1 1 1 1 1 1 1 1 1 1 1 1 1 1 1 1 1 1 1 1 1 0 0 0 0 0 1 1 1 1 1 1 1
2 2 2 1 1 1 1 1 1 1 1 1 1 1 1 1 1 1 1 1 1 1 1 1 1 1 1 1 1 1 1 0 0 0 0 1 1 1 1 1 1 1 1
2 1 1 1 1 1 1 1 1 1 1 1 1 1 1 1 1 1 1 1 1 1 1 1 1 1 1 1 1 1 1 1 0 0 0 1 1 1 1 1 1 1 1
1 1 1 1 1 1 1 1 1 1 1 1 1 1 1 1 1 1 1 1 1 1 1 1 1 1 1 1 1 1 1 1 1 0 0 1 1 1 1 1 1 1 1
1 1 1 1 1 1 1 1 1 1 1 0 0 0 0 1 1 1 1 1 1 1 1 1 1 1 1 1 1 1 1 1 1 1 0 0 1 1 1 1 1 1 1
1 1 1 1 1 1 1 1 1 1 1 0 0 0 0 0 0 1 1 1 1 1 1 1 1 1 1 1 1 1 0 0 0 0 0 0 0 1 1 1 1 1 1
1 1 1 1 1 1 1 1 1 1 1 0 0 0 0 0 0 0 0 1 1 1 1 1 1 1 1 1 1 1 0 0 0 0 0 0 0 0 0 1 1 1 1
1 1 1 1 1 1 1 1 1 1 0 0 0 0 0 0 0 0 0 0 1 1 1 1 1 1 1 1 1 0 0 0 0 0 0 0 0 0 0 0 1 1 1
1 1 1 2 1 1 0 0 0 0 0 0 0 0 0 0 0 0 0 0 0 1 1 1 1 1 1 1 1 0 0 0 0 0 0 0 0 0 0 0 0 1 1
1 1 1 1 1 0 0 1 1 0 0 0 0 0 0 0 0 0 0 0 0 0 0 0 1 1 1 1 1 0 0 0 0 0 0 0 0 0 0 0 0 0 1
1 1 1 1 1 1 0 1 1 1 0 0 0 0 0 0 0 0 0 0 0 0 0 0 0 1 1 1 1 0 0 0 0 0 0 0 0 0 0 0 0 0 0
1 1 1 1 1 1 0 0 1 1 1 0 0 0 0 0 0 0 0 0 0 0 0 0 0 0 0 0 0 0 0 0 0 0 0 0 0 0 0 0 0 0 0
1 1 1 1 1 1 0 0 0 1 1 1 0 0 0 0 0 0 0 0 0 0 0 0 0 0 0 0 0 0 0 0 0 0 0 0 0 0 0 0 0 0 0
1 1 1 1 1 1 0 0 0 0 0 1 1 0 0 0 0 0 0 0 0 0 0 0 0 0 0 0 0 0 0 0 0 0 0 0 0 0 0 0 0 0 0
1 1 1 1 1 1 0 0 0 0 0 0 0 0 0 0 0 0 0 0 0 0 0 0 0 0 0 0 0 0 0 0 0 0 0 0 0 0 0 0 0 0 0
1 1 0 1 1 0 0 0 0 0 0 0 0 0 0 0 0 0 0 0 0 0 0 0 0 0 0 0 0 0 0 0 0 0 0 0 0 0 0 0 0 0 0
1 0 0 0 1 0 0 0 0 0 0 0 0 0 0 0 0 0 0 0 0 0 0 0 0 0 0 0 0 0 0 0 0 0 0 0 0 0 0 0 0 0 0
Wind_Speed
5 7 8 7 6 6 5 5 5 6 6 5 5 5 5 5 5 6 6 6 6 6 6 7 7 8 9 10 11 11 11 11 12 12 12 11 11 11 11 9 10 9 14
6 8 8 7 6 5 5 5 5 5 5 4 4 4 4 4 5 5 5 5 5 6 7 7 8 8 9 10 10 11 11 11 11 10 10 9 9 10 10 11 11 9 13
7 8 7 7 6 5 5 5 5 5 4 4 4 4 4 4 4 5 5 5 5 6 7 7 8 8 8 9 9 10 9 8 7 7 6 5 7 10 11 12 12 13 13
7 7 6 7 6 5 5 4 4 4 4 3 3 4 4 4 4 5 5 5 5 6 7 7 7 8 8 9 9 8 8 6 4 3 3 4 5 10 11 12 12 12 13
6 7 7 6 6 5 4 4 4 3 3 3 3 3 4 4 4 5 5 5 5 5 6 7 7 7 8 8 8 8 7 4 3 2 3 5 5 9 11 11 11 11 12
6 7 7 6 5 5 4 3 3 3 3 2 2 3 3 3 4 4 5 5 5 5 6 6 7 7 7 8 8 7 5 3 2 1 3 5 5 9 11 11 11 11 11
5 6 6 6 5 5 4 2 2 2 2 2 2 3 3 3 3 4 4 5 4 4 6 6 7 7 7 7 7 6 4 3 2 2 3 4 6 10 11 11 11 11 11
4 6 5 6 5 5 4 3 2 2 2 2 2 3 3 3 3 3 4 4 4 4 5 6 6 6 7 7 6 4 3 2 2 3 4 4 8 11 11 11 10 10 11
4 4 4 4 3 4 4 3 3 2 2 2 2 2 2 2 2 3 3 4 4 4 5 5 6 6 7 6 5 3 2 1 1 1 4 4 8 10 10 10 10 10 10
3 3 3 3 3 2 2 3 3 2 3 3 3 2 2 2 2 3 3 3 4 5 5 5 6 6 6 5 4 3 1 1 0 2 3 5 9 9 9 9 9 10 10
2 2 2 2 2 2 2 3 3 3 2 3 2 2 2 1 2 2 3 3 3 5 5 5 5 6 5 4 3 2 1 0 1 2 3 7 9 9 9 9 9 10 10
2 2 2 1 1 1 1 2 2 2 2 1 1 2 1 1 1 2 4 4 4 4 5 4 5 5 4 2 1 1 1 1 2 2 3 8 8 8 8 9 9 9 10
2 2 2 1 1 1 1 1 1 1 1 1 1 1 1 1 2 2 2 3 3 3 2 3 3 1 2 2 1 1 1 1 2 2 3 7 8 8 8 9 9 9 9
2 2 2 2 1 1 1 1 1 1 1 1 2 2 1 1 1 1 2 2 2 1 2 2 1 1 2 2 2 2 2 2 2 2 3 6 7 7 8 9 9 9 9
2 2 2 2 2 1 1 1 1 1 1 2 2 2 2 1 1 1 1 2 2 2 2 2 2 2 2 2 2 3 3 3 3 3 2 5 6 7 7 8 9 9 9
3 3 2 2 2 2 2 1 1 1 1 1 2 2 2 2 1 1 1 1 1 2 2 2 2 2 2 2 2 2 3 3 3 3 3 4 5 5 6 7 8 8 8
2 3 3 3 2 2 2 1 1 1 1 1 1 1 2 2 2 1 1 1 1 1 2 1 2 2 2 2 3 3 2 3 3 3 3 2 2 3 5 6 6 7 8
2 3 3 2 2 2 1 1 1 1 1 1 1 2 2 1 2 2 2 2 1 1 2 2 2 2 2 2 2 2 2 2 3 2 3 3 2 2 3 4 5 5 6
2 3 3 2 2 2 1 1 1 2 1 1 1 2 2 2 2 2 2 2 2 2 2 2 2 2 3 3 3 3 2 2 2 2 2 3 3 3 2 3 4 4 5
3 3 3 2 2 2 2 1 1 2 1 1 1 2 2 2 2 2 2 2 2 2 2 2 3 2 3 3 3 3 2 1 2 2 2 2 2 3 2 2 2 2 4
2 2 3 2 2 2 2 2 2 1 1 0 1 2 2 2 2 2 2 2 2 2 2 3 2 3 2 2 3 2 2 2 2 1 1 1 1 2 2 2 2 2 2
2 2 2 2 2 2 2 2 1 1 1 1 1 1 1 1 2 2 3 2 2 2 2 3 3 2 2 2 2 2 1 1 1 1 1 1 1 1 1 1 1 1 2
1 2 2 2 2 2 2 2 1 1 1 1 1 1 1 1 1 2 3 2 2 2 3 3 3 3 3 2 2 3 3 3 1 1 1 0 1 1 1 1 1 1 1
1 2 2 2 2 2 3 3 3 2 2 1 1 1 1 1 1 1 2 2 2 2 3 3 3 2 4 3 1 0 1 2 2 1 1 1 1 1 1 1 1 1 1
3 2 2 2 1 2 2 2 2 1 1 1 1 2 1 1 2 2 2 2 2 2 3 3 2 2 2 3 2 1 1 1 1 2 2 1 1 1 1 1 1 1 1
3 2 2 1 1 2 2 2 2 2 1 1 1 2 2 1 1 2 2 2 2 2 3 3 3 3 2 2 2 2 2 2 2 2 2 1 1 1 1 1 2 2 1
Wind_Direction
100 117 118 117 117 110 104 102 99 97 97 98 97 95 95 93 94 93 95 96 96 97 100 108 107 100 98 97 96 94 93 91 90 88 84 83 89 92 90 87 88 87 90
106 117 118 117 118 116 111 108 102 98 98 100 101 101 97 95 97 100 102 100 104 104 105 107 109 105 102 100 101 102 100 100 99 96 90 82 84 90 87 84 90 95 95
104 114 117 108 115 118 115 111 105 100 97 97 106 107 99 95 96 104 104 100 104 108 108 106 108 107 104 102 104 107 109 111 115 116 109 98 94 93 92 91 93 96 97
101 107 105 105 108 114 118 112 111 108 104 101 109 112 108 106 103 109 114 106 98 102 105 108 110 109 105 106 107 108 110 108 114 127 122 107 102 101 99 97 96 97 97
101 103 100 105 110 109 110 111 117 117 113 105 107 109 116 116 112 116 119 106 98 101 107 109 111 110 110 111 111 110 104 94 85 96 90 92 94 107 107 103 100 100 99
98 105 108 97 112 115 116 112 125 131 122 113 118 117 121 120 118 121 122 110 105 107 117 116 119 114 115 116 116 110 100 78 57 76 92 99 100 112 111 108 106 104 105
98 105 114 103 111 118 116 114 120 143 142 134 137 131 126 124 122 122 119 118 112 119 120 119 126 123 119 118 117 112 91 58 75 72 80 93 108 119 117 113 110 107 106
101 113 122 119 112 116 112 103 98 110 128 141 133 129 127 123 124 127 123 128 124 127 126 123 122 123 121 120 120 111 83 55 88 94 91 95 115 120 119 116 113 111 111
94 112 126 130 122 119 114 107 93 91 116 114 113 112 109 113 128 133 128 130 131 130 129 124 122 125 125 123 124 112 84 12 23 99 113 105 117 121 122 121 120 118 116
94 105 118 128 123 126 129 118 108 99 102 109 104 100 107 119 140 139 122 126 131 131 125 125 124 126 125 125 129 127 123 330 21 89 104 117 121 126 128 125 124 124 120
100 108 123 131 129 133 140 126 118 120 116 121 122 130 149 162 159 147 133 122 128 131 127 130 131 128 126 132 143 142 131 129 99 86 95 121 126 129 129 129 129 126 122
140 129 126 118 132 140 135 129 146 144 139 147 137 155 182 159 122 117 117 122 121 125 130 137 139 138 141 147 158 146 139 109 89 88 104 124 129 131 132 131 130 128 124
150 140 125 120 125 126 130 153 153 148 154 151 127 138 151 133 110 108 114 116 120 131 131 138 142 165 161 143 140 150 118 101 90 90 106 122 127 131 133 132 131 130 128
156 156 136 127 138 139 146 174 158 143 167 149 142 133 125 115 114 135 149 148 152 157 147 158 179 165 159 148 151 144 114 93 91 93 103 118 124 133 135 137 135 132 131
169 161 143 140 154 155 161 191 176 172 168 159 153 151 131 123 146 145 155 148 154 155 155 163 173 152 156 146 139 121 111 103 102 94 97 104 115 127 136 141 141 138 138
177 169 161 155 159 167 168 182 180 166 155 145 147 162 145 146 148 163 141 129 145 155 156 159 156 138 135 121 115 104 105 100 103 100 100 92 97 115 133 143 147 148 147
177 165 164 165 162 172 174 176 146 138 135 144 152 145 132 135 145 146 129 120 109 120 130 115 103 104 111 104 101 92 89 88 97 103 106 102 96 100 127 141 146 153 155
168 161 160 159 157 159 151 138 128 123 115 148 144 132 132 127 138 139 135 132 120 101 100 101 96 98 104 103 95 85 77 74 76 91 100 106 103 99 102 122 136 152 159
159 144 144 150 156 154 151 144 119 113 98 112 116 119 130 126 135 130 132 129 120 113 113 119 98 108 112 102 95 83 74 68 70 74 88 95 98 101 105 105 114 135 154
137 139 143 145 145 145 151 140 116 100 81 80 100 118 125 136 143 129 126 126 124 119 122 127 125 111 114 118 102 80 72 74 69 77 79 82 95 102 108 116 123 128 149
111 124 142 146 155 147 145 151 141 139 130 90 94 109 117 128 136 127 129 136 136 138 149 148 134 131 130 121 97 70 38 42 58 70 67 80 86 100 104 109 124 135 150
133 145 145 156 152 147 139 139 143 146 140 132 90 95 118 128 135 135 132 142 148 144 148 147 140 140 148 145 130 114 107 6 354 11 67 107 134 114 114 115 107 120 140
111 154 152 149 148 140 131 129 132 136 135 126 139 156 160 142 133 134 145 151 161 159 166 166 160 158 168 182 163 149 156 190 227 276 249 180 148 123 150 138 139 130 140
114 107 108 117 131 147 148 150 163 168 172 178 168 160 159 157 152 153 156 163 168 163 164 178 169 168 166 178 191 181 156 143 152 180 278 231 179 168 191 215 183 166 137
96 92 99 99 112 126 142 151 160 182 181 160 159 159 172 180 174 173 169 163 168 169 174 179 170 172 173 178 177 179 124 79 124 150 207 243 259 237 224 213 197 193 170
92 92 95 116 129 128 139 154 176 186 172 170 163 167 178 181 188 191 177 166 174 177 182 187 182 183 185 179 179 173 168 165 187 172 178 197 227 253 253 230 202 193 188